Mount Sterling, KY

6:29 PM EDT on May 22, 2018 (GMT -0400)
Mount Sterling-Montgomery County

Weather History for KIOB - October, 2014

Change the Weather History Date:

Sunday, October 19, 2014

  Actual Average Record
Temperature  
Mean Temperature 50 °F -  
Max Temperature 59 °F 61 °F 84 °F (2016)
Min Temperature 41 °F 38 °F 32 °F (2015)
Degree Days  
Heating Degree Days 15    
Moisture  
Dew Point 42 °F    
Average Humidity 81    
Maximum Humidity 100    
Minimum Humidity 51    
Precipitation  
Precipitation 0.01 in - - ()
Sea Level Pressure  
Sea Level Pressure 30.18 in    
Wind  
Wind Speed 2 mph (WSW)    
Max Wind Speed 5 mph    
Max Gust Speed -    
Visibility 10 miles    
Events      
Averages and records for this station are not official NWS values.
T = Trace of Precipitation, MM = Missing Value Source: NWS Daily Summary

Daily Weather History Graph

Daily Weather History Graph

Search for Another Location

Airport or City:

Astronomy

Oct. 19, 2014 Rise Set
Actual Time 7:48 AM EDT 6:52 PM EDT
Civil Twilight 7:21 AM EDT 7:19 PM EDT
Nautical Twilight 6:51 AM EDT 7:49 PM EDT
Astronomical Twilight 6:20 AM EDT 8:20 PM EDT
Moon 3:44 AM EDT (10/19) 4:40 PM EDT (10/19)
Length of Visible Light 11h 57m
Length of Day
11h 04m
Waning Crescent, 17% of the Moon is Illuminated
Oct 19
Waning Crescent
Oct 23
New
Oct 30
First Quarter
Nov 6
Full
Nov 14
Last Quarter

Hourly Weather History & Observations

Time (EDT) Temp. Windchill Dew Point Humidity Pressure Visibility Wind Dir Wind Speed Gust Speed Precip Events Conditions
12:15 AM 44.6 °F 43.1 °F 44.6 °F 100% 30.15 in 10.0 mi North 3.5 mph - N/A   Overcast
12:35 AM 44.6 °F 43.1 °F 44.6 °F 100% 30.14 in 10.0 mi North 3.5 mph - N/A   Overcast
12:55 AM 44.6 °F 43.1 °F 42.8 °F 93% 30.15 in 10.0 mi North 3.5 mph - N/A   Mostly Cloudy
1:10 AM 44.6 °F 42.2 °F 44.6 °F 100% 30.15 in 10.0 mi North 4.6 mph - N/A   Mostly Cloudy
1:35 AM 44.6 °F - 44.6 °F 100% 30.16 in 10.0 mi Calm Calm - N/A   Overcast
1:55 AM 44.6 °F 43.1 °F 44.6 °F 100% 30.17 in 10.0 mi North 3.5 mph - N/A   Overcast
2:15 AM 44.6 °F 43.1 °F 44.6 °F 100% 30.17 in 10.0 mi North 3.5 mph - N/A   Overcast
2:35 AM 44.6 °F - 44.6 °F 100% 30.16 in 10.0 mi Calm Calm - N/A   Overcast
2:55 AM 44.6 °F - 44.6 °F 100% 30.17 in 10.0 mi Calm Calm - N/A   Overcast
3:15 AM 44.6 °F - 44.6 °F 100% 30.17 in 10.0 mi Calm Calm - N/A   Overcast
3:35 AM 44.6 °F - 44.6 °F 100% 30.17 in 10.0 mi Calm Calm - N/A   Overcast
3:55 AM 44.6 °F - 44.6 °F 100% 30.18 in 10.0 mi Calm Calm - N/A   Overcast
4:15 AM 44.6 °F - 44.6 °F 100% 30.18 in 10.0 mi Calm Calm - N/A   Overcast
4:35 AM 44.6 °F - 44.6 °F 100% 30.18 in 10.0 mi Calm Calm - N/A   Overcast
4:55 AM 44.6 °F - 44.6 °F 100% 30.18 in 10.0 mi Calm Calm - N/A   Overcast
5:15 AM 44.6 °F - 44.6 °F 100% 30.19 in 10.0 mi Calm Calm - N/A   Overcast
5:35 AM 44.6 °F - 44.6 °F 100% 30.20 in 10.0 mi Calm Calm - N/A   Overcast
5:55 AM 44.6 °F - 44.6 °F 100% 30.20 in 10.0 mi Calm Calm - N/A   Overcast
6:15 AM 44.6 °F - 44.6 °F 100% 30.21 in 10.0 mi Calm Calm - N/A   Overcast
6:35 AM 44.6 °F - 44.6 °F 100% 30.22 in 10.0 mi Calm Calm - N/A   Overcast
6:55 AM 44.6 °F - 44.6 °F 100% 30.22 in 10.0 mi Calm Calm - N/A   Overcast
7:15 AM 44.6 °F - 44.6 °F 100% 30.23 in 10.0 mi Calm Calm - N/A   Overcast
7:35 AM 44.6 °F - 44.6 °F 100% 30.23 in 10.0 mi Calm Calm - N/A   Overcast
7:55 AM 44.6 °F - 44.6 °F 100% 30.23 in 10.0 mi Calm Calm - N/A   Overcast
8:15 AM 44.6 °F - 44.6 °F 100% 30.23 in 10.0 mi Calm Calm - N/A   Overcast
8:35 AM 44.6 °F - 44.6 °F 100% 30.23 in 10.0 mi Calm Calm - N/A   Overcast
8:55 AM 44.6 °F - 44.6 °F 100% 30.23 in 10.0 mi Calm Calm - 0.01 in   Mostly Cloudy
9:15 AM 46.4 °F - 42.8 °F 87% 30.24 in 10.0 mi Calm Calm - N/A   Mostly Cloudy
9:30 AM 48.2 °F - 39.2 °F 71% 30.25 in 10.0 mi Calm Calm - N/A   Mostly Cloudy
9:55 AM 48.2 °F - 37.4 °F 66% 30.25 in 10.0 mi Calm Calm - N/A   Overcast
10:15 AM 50.0 °F - 37.4 °F 62% 30.26 in 10.0 mi Calm Calm - N/A   Overcast
10:35 AM 50.0 °F - 37.4 °F 62% 30.26 in 10.0 mi West 3.5 mph - N/A   Overcast
10:55 AM 50.0 °F - 39.2 °F 66% 30.25 in 10.0 mi Calm Calm - N/A   Overcast
11:15 AM 50.0 °F - 37.4 °F 62% 30.25 in 10.0 mi SSE 3.5 mph - N/A   Mostly Cloudy
11:35 AM 51.8 °F - 37.4 °F 58% 30.25 in 10.0 mi SSW 4.6 mph - N/A   Scattered Clouds
11:55 AM 51.8 °F - 37.4 °F 58% 30.25 in 10.0 mi Calm Calm - N/A   Mostly Cloudy
12:15 PM 51.8 °F - 39.2 °F 62% 30.25 in 10.0 mi WNW 3.5 mph - N/A   Scattered Clouds
12:35 PM 50.0 °F - 37.4 °F 62% 30.25 in 10.0 mi Calm Calm - N/A   Clear
12:55 PM 51.8 °F - 37.4 °F 58% 30.25 in 10.0 mi Calm Calm - N/A   Mostly Cloudy
1:15 PM 53.6 °F - 39.2 °F 58% 30.24 in 10.0 mi Calm Calm - N/A   Overcast
1:35 PM 53.6 °F - 39.2 °F 58% 30.23 in 10.0 mi SSE 4.6 mph - N/A   Overcast
1:55 PM 55.4 °F - 41.0 °F 58% 30.22 in 10.0 mi WSW 3.5 mph - N/A   Mostly Cloudy
2:15 PM 55.4 °F - 39.2 °F 54% 30.22 in 10.0 mi SSW 4.6 mph - N/A   Scattered Clouds
2:35 PM 55.4 °F - 39.2 °F 54% 30.20 in 10.0 mi SW 4.6 mph - N/A   Scattered Clouds
2:55 PM 57.2 °F - 41.0 °F 55% 30.19 in 10.0 mi NNW 3.5 mph - N/A   Clear
3:15 PM 55.4 °F - 41.0 °F 58% 30.19 in 10.0 mi Calm Calm - N/A   Clear
3:35 PM 55.4 °F - 41.0 °F 58% 30.18 in 10.0 mi Calm Calm - N/A   Clear
3:55 PM 59.0 °F - 41.0 °F 51% 30.18 in 5.0 mi Calm Calm - N/A   Haze
4:15 PM 57.2 °F - 41.0 °F 55% 30.18 in 10.0 mi Calm Calm - N/A   Clear
4:35 PM 57.2 °F - 41.0 °F 55% 30.16 in 10.0 mi North 3.5 mph - N/A   Clear
4:55 PM 57.2 °F - 41.0 °F 55% 30.16 in 10.0 mi Calm Calm - N/A   Clear
5:15 PM 57.2 °F - 41.0 °F 55% 30.16 in 10.0 mi Calm Calm - N/A   Clear
5:35 PM 57.2 °F - 41.0 °F 55% 30.15 in 10.0 mi Calm Calm - N/A   Clear
5:55 PM 57.2 °F - 39.2 °F 51% 30.15 in 10.0 mi Calm Calm - N/A   Clear
6:15 PM 55.4 °F - 41.0 °F 58% 30.15 in 10.0 mi Calm Calm - N/A   Clear
6:35 PM 55.4 °F - 41.0 °F 58% 30.15 in 10.0 mi Calm Calm - N/A   Clear
6:55 PM 53.6 °F - 41.0 °F 62% 30.15 in 10.0 mi Calm Calm - N/A   Clear
7:15 PM 50.0 °F - 41.0 °F 71% 30.15 in 10.0 mi Calm Calm - N/A   Clear
7:35 PM 48.2 °F - 42.8 °F 82% 30.15 in 10.0 mi Calm Calm - N/A   Clear
7:55 PM 46.4 °F - 42.8 °F 87% 30.15 in 10.0 mi Calm Calm - N/A   Clear
8:15 PM 44.6 °F - 42.8 °F 93% 30.15 in 10.0 mi Calm Calm - N/A   Clear
8:35 PM 42.8 °F - 42.8 °F 100% 30.14 in 10.0 mi Calm Calm - N/A   Clear
8:55 PM 42.8 °F - 42.8 °F 100% 30.14 in 10.0 mi Calm Calm - N/A   Clear
9:15 PM 44.6 °F - 42.8 °F 93% 30.13 in 10.0 mi Calm Calm - N/A   Clear
9:35 PM 42.8 °F 41.1 °F 42.8 °F 100% 30.12 in 10.0 mi South 3.5 mph - N/A   Clear
9:55 PM 42.8 °F 41.1 °F 41.0 °F 93% 30.12 in 10.0 mi South 3.5 mph - N/A   Clear
10:15 PM 42.8 °F 40.1 °F 41.0 °F 93% 30.12 in 10.0 mi SSW 4.6 mph - N/A   Clear
10:35 PM 44.6 °F 42.2 °F 42.8 °F 93% 30.10 in 10.0 mi South 4.6 mph - N/A   Clear
10:55 PM 41.0 °F 38.0 °F 39.2 °F 93% 30.11 in 7.0 mi West 4.6 mph - N/A   Clear
11:15 PM 42.8 °F 41.1 °F 41.0 °F 93% 30.10 in 10.0 mi SW 3.5 mph - N/A   Clear
11:35 PM 42.8 °F 41.1 °F 41.0 °F 93% 30.10 in 10.0 mi SW 3.5 mph - N/A   Clear
11:55 PM 42.8 °F 41.1 °F 41.0 °F 93% 30.09 in 7.0 mi SW 3.5 mph - N/A   Clear